TimePST,TemperatureF,Dew PointF,Humidity,Sea Level PressureIn,VisibilityMPH,Wind Direction,Wind SpeedMPH,Gust SpeedMPH,PrecipitationIn,Events,Conditions,WindDirDegrees,DateUTC
12:53 AM,12.0,5.0,73,30.41,8.0,Calm,Calm,-,N/A,,Clear,0,2013-01-18 08:53:00
1:53 AM,9.0,3.0,77,30.43,8.0,South,4.6,-,N/A,,Clear,180,2013-01-18 09:53:00
2:53 AM,8.1,1.9,76,30.41,8.0,South,4.6,-,N/A,,Clear,180,2013-01-18 10:53:00
3:53 AM,6.1,-0.9,73,30.45,9.0,Calm,Calm,-,N/A,,Clear,0,2013-01-18 11:53:00
4:53 AM,3.9,-2.0,76,30.48,9.0,South,3.5,-,N/A,,Clear,190,2013-01-18 12:53:00
5:53 AM,3.0,-4.0,73,30.51,10.0,Calm,Calm,-,N/A,,Clear,0,2013-01-18 13:53:00
6:53 AM,3.0,-4.0,73,30.53,10.0,South,3.5,-,N/A,,Clear,190,2013-01-18 14:53:00
8:53 AM,10.0,1.9,70,30.56,10.0,South,3.5,-,N/A,,Clear,180,2013-01-18 16:53:00
9:53 AM,21.9,8.1,55,30.50,10.0,South,3.5,-,N/A,,Clear,180,2013-01-18 17:53:00
10:53 AM,32.0,10.9,42,30.45,10.0,Calm,Calm,-,N/A,,Clear,0,2013-01-18 18:53:00
11:53 AM,42.1,12.9,31,30.38,10.0,Calm,Calm,-,N/A,,Clear,0,2013-01-18 19:53:00
12:53 PM,43.0,16.0,34,30.35,10.0,NNE,5.8,-,N/A,,Clear,30,2013-01-18 20:53:00
1:53 PM,43.0,21.0,42,30.35,10.0,NNE,8.1,-,N/A,,Clear,30,2013-01-18 21:53:00
2:53 PM,44.1,19.0,37,30.35,10.0,NNE,6.9,-,N/A,,Clear,30,2013-01-18 22:53:00
3:53 PM,41.0,18.0,40,30.37,10.0,NNE,4.6,-,N/A,,Clear,20,2013-01-18 23:53:00
4:53 PM,33.1,21.0,61,30.43,10.0,Calm,Calm,-,N/A,,Clear,0,2013-01-19 00:53:00
5:53 PM,27.0,18.0,69,30.48,10.0,Calm,Calm,-,N/A,,Clear,0,2013-01-19 01:53:00
6:53 PM,25.0,16.0,69,30.51,10.0,SSW,3.5,-,N/A,,Clear,200,2013-01-19 02:53:00
7:53 PM,21.9,14.0,72,30.54,10.0,South,3.5,-,N/A,,Clear,180,2013-01-19 03:53:00
8:53 PM,19.0,12.9,77,30.51,10.0,South,3.5,-,N/A,,Clear,190,2013-01-19 04:53:00
9:53 PM,16.0,10.0,77,30.48,9.0,SSW,3.5,-,N/A,,Clear,200,2013-01-19 05:53:00
10:53 PM,15.1,8.1,74,30.43,9.0,South,3.5,-,N/A,,Clear,180,2013-01-19 06:53:00
11:53 PM,12.9,7.0,77,30.40,8.0,SSW,3.5,-,N/A,,Clear,200,2013-01-19 07:53:00